CAPE
0 0 0 0 0 0 0 0 0 0 0 0 0 0 0 0 0 0 15 32 156 1309 1336 1373 1434 1144 1173 858 676 676 838 770 786 867 786 591 411 872 507 363 159 62 5 4 0 0 0 0 0
0 0 0 0 0 0 0 0 0 0 0 0 0 0 0 0 0 0 0 0 158 1204 1308 1459 1337 1086 1082 923 863 888 903 806 525 333 242 471 894 738 568 507 291 89 3 3 3 0 0 0 0
0 0 0 0 0 0 0 0 0 0 0 0 0 0 0 0 0 0 0 21 264 755 1325 1361 1278 1167 954 849 921 978 863 642 434 306 276 390 756 717 555 407 57 0 0 0 0 0 0 0 0
0 0 0 0 0 0 0 0 0 0 0 0 0 0 0 0 0 0 0 2 323 619 1393 1272 1167 1055 1142 1036 881 977 947 841 700 647 685 551 445 548 588 251 10 0 0 0 0 0 0 0 0
0 0 0 0 0 0 0 0 0 0 0 0 0 0 0 0 0 0 0 0 355 456 1254 1282 1103 1144 1001 804 676 704 795 727 762 733 814 557 394 443 343 278 15 0 0 0 0 0 0 0 0
0 0 0 0 0 0 0 0 0 0 0 0 0 0 0 0 0 0 0 57 392 659 900 1130 1076 1129 1147 991 765 817 715 683 566 569 583 447 258 245 220 37 0 0 0 0 0 0 0 0 0
0 0 0 0 0 0 0 0 0 0 0 0 0 0 0 0 0 0 0 0 0 35 410 784 880 750 862 942 891 965 853 657 470 487 361 408 250 191 78 47 0 0 0 0 0 0 0 0 0
0 0 0 0 0 0 0 0 0 0 0 0 0 0 0 0 0 0 0 0 0 0 0 0 53 360 506 792 699 664 743 754 626 561 456 340 267 48 0 0 0 2 0 0 0 0 0 0 0
0 0 0 0 0 0 0 0 0 0 0 0 0 0 0 0 0 0 0 0 0 0 0 0 0 0 92 309 476 563 580 690 681 520 386 304 385 113 0 2 5 9 10 3 0 0 0 0 0
0 0 0 0 0 0 0 0 0 0 0 0 0 0 0 0 0 0 0 0 0 0 0 0 0 0 0 0 109 260 369 647 749 644 576 399 416 380 20 0 1 10 12 8 1 0 0 0 0
0 0 0 0 0 0 0 0 0 0 0 0 0 0 0 0 0 0 0 0 0 0 0 0 0 0 0 0 17 145 407 557 409 491 428 404 249 57 16 0 2 3 16 6 0 0 0 0 0
0 0 0 0 0 0 0 0 0 0 0 0 0 0 0 0 0 0 0 0 0 0 0 0 0 0 0 0 0 24 124 193 76 63 104 232 52 25 21 19 37 29 15 14 1 0 0 0 0
0 0 0 0 0 0 0 0 0 0 0 0 0 0 0 0 0 0 0 0 0 0 0 0 0 0 0 0 6 6 0 0 0 0 0 0 0 0 2 1 0 1 0 5 0 0 0 0 0
0 0 0 0 0 0 0 0 0 0 0 0 0 0 0 0 0 0 0 0 0 0 0 0 0 0 0 0 0 0 0 0 0 0 0 1 0 0 0 0 0 0 0 0 0 0 0 0 0
0 0 0 0 0 0 0 0 0 0 0 0 0 0 0 0 0 0 0 0 0 0 0 0 0 0 0 0 0 0 0 0 0 0 0 0 0 0 0 0 1 1 1 0 0 0 0 0 0
0 0 0 0 0 0 0 0 0 0 0 0 0 0 0 0 0 0 0 0 0 0 0 0 0 0 0 0 0 0 0 0 0 0 0 0 0 0 0 0 0 0 0 0 0 0 0 0 0
0 0 0 0 0 0 0 0 0 0 0 0 0 0 0 0 0 0 0 0 0 0 0 0 0 0 0 0 0 0 0 0 0 0 0 0 0 0 0 0 0 0 0 0 0 0 0 0 0
0 0 0 0 0 0 0 0 0 0 0 0 0 0 0 0 0 0 0 0 0 0 0 0 0 0 0 0 0 0 0 0 0 0 0 0 0 0 0 0 0 0 0 0 0 0 0 0 0
0 0 0 0 0 0 0 0 0 0 0 0 0 0 0 0 0 0 0 0 0 0 0 0 0 0 0 0 0 0 0 0 0 0 0 0 0 0 0 0 0 0 0 0 0 0 0 0 0
0 0 0 0 0 0 0 0 0 0 0 0 0 0 0 0 0 0 0 0 0 0 0 0 0 0 0 0 0 0 0 0 0 0 0 0 0 0 0 0 0 0 0 0 0 0 0 0 0
0 0 0 0 0 0 0 0 0 0 0 0 0 0 0 0 0 0 0 0 0 0 0 0 0 0 0 0 0 0 0 0 0 0 0 0 0 0 0 0 0 0 0 0 0 0 0 0 0
0 0 0 0 0 0 0 0 0 0 0 0 0 0 0 0 0 0 0 0 0 0 0 0 0 0 0 0 0 0 0 0 0 0 0 0 0 0 0 0 0 0 0 0 0 0 0 0 0
0 0 0 0 0 0 0 0 0 0 0 0 0 0 0 0 0 0 0 0 0 0 0 0 0 0 0 0 0 0 0 0 0 0 0 0 0 0 0 0 0 0 0 0 0 0 0 0 0
0 0 0 0 0 0 0 0 0 0 0 0 0 0 0 0 0 0 0 0 0 0 0 0 0 0 0 0 0 0 0 0 0 0 0 0 0 0 0 0 0 0 0 0 0 0 0 0 0
0 0 0 0 0 0 0 0 0 0 0 0 0 0 0 0 0 0 0 0 0 0 0 0 0 0 0 0 0 0 0 0 0 0 0 0 0 0 0 0 0 0 0 0 0 0 0 0 0
0 0 0 0 0 0 0 0 0 0 0 0 0 0 0 0 0 0 0 0 0 0 0 0 0 0 0 0 0 0 0 0 0 0 0 0 0 0 0 0 0 0 0 0 0 0 0 0 0
0 0 0 0 0 0 0 0 0 0 0 0 0 0 0 0 0 0 0 0 0 0 0 0 0 0 0 0 0 0 0 0 0 0 0 0 0 0 0 0 0 0 0 0 0 0 0 0 0
0 0 0 0 0 0 0 0 0 0 0 0 0 0 0 0 0 0 0 0 0 0 0 0 0 0 0 0 0 0 0 0 0 0 0 0 0 0 0 0 0 0 0 0 0 0 0 0 0
0 0 0 0 0 0 0 0 0 0 0 0 0 0 0 0 0 0 0 0 0 0 0 0 0 0 0 0 0 0 0 0 0 0 0 0 0 0 0 0 0 0 0 0 0 0 0 0 0
0 0 0 0 0 0 0 0 0 0 0 0 0 0 0 0 0 0 0 0 0 0 0 0 0 0 0 0 0 0 0 0 0 0 0 0 0 0 0 0 0 0 0 0 0 0 0 0 0
CIN
-0 -0 -0 -0 -0 -0 -0 -0 -0 -0 -0 -0 -0 -0 -0 -0 -0 -0 -172 -265 -155 -11 -26 -13 -6 -16 -12 -37 -50 -49 -29 -30 -19 -5 -2 -4 -12 -0 -5 -0 -9 -27 -81 -0 -0 -0 -0 -0 -0
-0 -0 -0 -0 -0 -0 -0 -0 -0 -0 -0 -0 -0 -0 -0 -0 -0 -0 -0 -0 -190 -7 -16 -2 -6 -19 -16 -19 -18 -15 -15 -16 -34 -43 -50 -11 -0 -0 -3 -2 -3 -46 -0 -0 -0 -0 -0 -0 -0
-0 -0 -0 -0 -0 -0 -0 -0 -0 -0 -0 -0 -0 -0 -0 -0 -0 -0 -0 -256 -137 -27 -3 -12 -7 -8 -13 -23 -14 -8 -10 -25 -37 -47 -42 -20 -1 -4 -0 -1 -78 -0 -0 -0 -0 -0 -0 -0 -0
-0 -0 -0 -0 -0 -0 -0 -0 -0 -0 -0 -0 -0 -0 -0 -0 -0 -0 -0 -281 -135 -56 -9 -21 -12 -10 -6 -8 -9 -5 -6 -9 -12 -9 -2 -5 -6 -1 -0 -15 -81 -0 -0 -0 -0 -0 -0 -0 -0
-0 -0 -0 -0 -0 -0 -0 -0 -0 -0 -0 -0 -0 -0 -0 -0 -0 -0 -0 -74 -127 -105 -31 -21 -18 -7 -6 -13 -23 -19 -8 -5 -3 -2 -0 -2 -10 -4 -16 -29 -187 -0 -0 -0 -0 -0 -0 -0 -0
-0 -0 -0 -0 -0 -0 -0 -0 -0 -0 -0 -0 -0 -0 -0 -0 -0 -0 -0 -290 -137 -85 -35 -20 -15 -7 -2 -4 -9 -7 -10 -9 -11 -7 -3 -8 -24 -26 -40 -142 -0 -0 -0 -0 -0 -0 -0 -0 -0
-0 -0 -0 -0 -0 -0 -0 -0 -0 -0 -0 -0 -0 -0 -0 -0 -0 -0 -0 -0 -0 -54 -133 -45 -28 -30 -11 -7 -5 -2 -4 -7 -12 -9 -13 -9 -30 -51 -131 -151 -0 -0 -0 -0 -0 -0 -0 -0 -0
-0 -0 -0 -0 -0 -0 -0 -0 -0 -0 -0 -0 -0 -0 -0 -0 -0 -0 -0 -0 -0 -0 -0 -0 -286 -98 -62 -13 -15 -13 -10 -5 -3 -6 -10 -16 -35 -143 -0 -0 -0 -26 -1 -0 -0 -0 -0 -0 -0
-0 -0 -0 -0 -0 -0 -0 -0 -0 -0 -0 -0 -0 -0 -0 -0 -0 -0 -0 -0 -0 -0 -0 -0 -0 -0 -213 -96 -60 -32 -16 -8 -5 -8 -19 -36 -14 -81 -0 -16 -25 -26 -40 -61 -28 -0 -0 -0 -0
-0 -0 -0 -0 -0 -0 -0 -0 -0 -0 -0 -0 -0 -0 -0 -0 -0 -0 -0 -0 -0 -0 -0 -0 -0 -0 -0 -8 -158 -58 -19 -6 -8 -9 -8 -13 -6 -2 -129 -0 -31 -52 -51 -60 -57 -0 -0 -0 -0
-0 -0 -0 -0 -0 -0 -0 -0 -0 -0 -0 -0 -0 -0 -0 -0 -0 -0 -0 -0 -0 -0 -0 -0 -0 -0 -0 -0 -273 -116 -26 -4 -4 -3 -3 -2 -11 -64 -164 -0 -50 -68 -46 -71 -5 -0 -0 -0 -0
-0 -0 -0 -0 -0 -0 -0 -0 -0 -0 -0 -0 -0 -0 -0 -0 -0 -0 -0 -0 -0 -0 -0 -0 -0 -0 -0 -0 -0 -185 -86 -61 -135 -129 -84 -22 -59 -94 -13 -13 -4 -28 -32 -41 -87 -0 -0 -0 -0
-0 -0 -0 -0 -0 -0 -0 -0 -0 -0 -0 -0 -0 -0 -0 -0 -0 -0 -0 -0 -0 -0 -0 -0 -0 -0 -0 -0 -51 -90 -5 -0 -0 -0 -0 -0 -1 -0 -0 -0 -0 -18 -0 -43 -0 -0 -0 -0 -0
-0 -0 -0 -0 -0 -0 -0 -0 -0 -0 -0 -0 -0 -0 -0 -0 -0 -0 -0 -0 -0 -0 -0 -0 -0 -0 -0 -0 -0 -0 -0 -0 -0 -0 -0 -0 -0 -0 -0 -0 -0 -0 -0 -0 -0 -0 -0 -0 -0
-0 -0 -0 -0 -0 -0 -0 -0 -0 -0 -0 -0 -0 -0 -0 -0 -0 -0 -0 -0 -0 -0 -0 -0 -0 -0 -0 -0 -0 -0 -0 -0 -0 -0 -0 -0 -0 -0 -0 -0 -0 -0 -0 -0 -0 -0 -0 -0 -0
-0 -0 -0 -0 -0 -0 -0 -0 -0 -0 -0 -0 -0 -0 -0 -0 -0 -0 -0 -0 -0 -0 -0 -0 -0 -0 -0 -0 -0 -0 -0 -0 -0 -0 -0 -0 -0 -0 -0 -0 -0 -0 -0 -0 -0 -0 -0 -0 -0
-0 -0 -0 -0 -0 -0 -0 -0 -0 -0 -0 -0 -0 -0 -0 -0 -0 -0 -0 -0 -0 -0 -0 -0 -0 -0 -0 -0 -0 -0 -0 -0 -0 -0 -0 -0 -0 -0 -0 -0 -0 -0 -0 -0 -0 -0 -0 -0 -0
-0 -0 -0 -0 -0 -0 -0 -0 -0 -0 -0 -0 -0 -0 -0 -0 -0 -0 -0 -0 -0 -0 -0 -0 -0 -0 -0 -0 -0 -0 -0 -0 -0 -0 -0 -0 -0 -0 -0 -0 -0 -0 -0 -0 -0 -0 -0 -0 -0
-0 -0 -0 -0 -0 -0 -0 -0 -0 -0 -0 -0 -0 -0 -0 -0 -0 -0 -0 -0 -0 -0 -0 -0 -0 -0 -0 -0 -0 -0 -0 -0 -0 -0 -0 -0 -0 -0 -0 -0 -0 -0 -0 -0 -0 -0 -0 -0 -0
-0 -0 -0 -0 -0 -0 -0 -0 -0 -0 -0 -0 -0 -0 -0 -0 -0 -0 -0 -0 -0 -0 -0 -0 -0 -0 -0 -0 -0 -0 -0 -0 -0 -0 -0 -0 -0 -0 -0 -0 -0 -0 -0 -0 -0 -0 -0 -0 -0
-0 -0 -0 -0 -0 -0 -0 -0 -0 -0 -0 -0 -0 -0 -0 -0 -0 -0 -0 -0 -0 -0 -0 -0 -0 -0 -0 -0 -0 -0 -0 -0 -0 -0 -0 -0 -0 -0 -0 -0 -0 -0 -0 -0 -0 -0 -0 -0 -0
-0 -0 -0 -0 -0 -0 -0 -0 -0 -0 -0 -0 -0 -0 -0 -0 -0 -0 -0 -0 -0 -0 -0 -0 -0 -0 -0 -0 -0 -0 -0 -0 -0 -0 -0 -0 -0 -0 -0 -0 -0 -0 -0 -0 -0 -0 -0 -0 -0
-0 -0 -0 -0 -0 -0 -0 -0 -0 -0 -0 -0 -0 -0 -0 -0 -0 -0 -0 -0 -0 -0 -0 -0 -0 -0 -0 -0 -0 -0 -0 -0 -0 -0 -0 -0 -0 -0 -0 -0 -0 -0 -0 -0 -0 -0 -0 -0 -0
-0 -0 -0 -0 -0 -0 -0 -0 -0 -0 -0 -0 -0 -0 -0 -0 -0 -0 -0 -0 -0 -0 -0 -0 -0 -0 -0 -0 -0 -0 -0 -0 -0 -0 -0 -0 -0 -0 -0 -0 -0 -0 -0 -0 -0 -0 -0 -0 -0
-0 -0 -0 -0 -0 -0 -0 -0 -0 -0 -0 -0 -0 -0 -0 -0 -0 -0 -0 -0 -0 -0 -0 -0 -0 -0 -0 -0 -0 -0 -0 -0 -0 -0 -0 -0 -0 -0 -0 -0 -0 -0 -0 -0 -0 -0 -0 -0 -0
-0 -0 -0 -0 -0 -0 -0 -0 -0 -0 -0 -0 -0 -0 -0 -0 -0 -0 -0 -0 -0 -0 -0 -0 -0 -0 -0 -0 -0 -0 -0 -0 -0 -0 -0 -0 -0 -0 -0 -0 -0 -0 -0 -0 -0 -0 -0 -0 -0
-0 -0 -0 -0 -0 -0 -0 -0 -0 -0 -0 -0 -0 -0 -0 -0 -0 -0 -0 -0 -0 -0 -0 -0 -0 -0 -0 -0 -0 -0 -0 -0 -0 -0 -0 -0 -0 -0 -0 -0 -0 -0 -0 -0 -0 -0 -0 -0 -0
-0 -0 -0 -0 -0 -0 -0 -0 -0 -0 -0 -0 -0 -0 -0 -0 -0 -0 -0 -0 -0 -0 -0 -0 -0 -0 -0 -0 -0 -0 -0 -0 -0 -0 -0 -0 -0 -0 -0 -0 -0 -0 -0 -0 -0 -0 -0 -0 -0
-0 -0 -0 -0 -0 -0 -0 -0 -0 -0 -0 -0 -0 -0 -0 -0 -0 -0 -0 -0 -0 -0 -0 -0 -0 -0 -0 -0 -0 -0 -0 -0 -0 -0 -0 -0 -0 -0 -0 -0 -0 -0 -0 -0 -0 -0 -0 -0 -0
-0 -0 -0 -0 -0 -0 -0 -0 -0 -0 -0 -0 -0 -0 -0 -0 -0 -0 -0 -0 -0 -0 -0 -0 -0 -0 -0 -0 -0 -0 -0 -0 -0 -0 -0 -0 -0 -0 -0 -0 -0 -0 -0 -0 -0 -0 -0 -0 -0
Wind_Speed
13 13 13 15 18 21 23 21 23 22 23 24 22 17 16 15 11 16 17 12 16 22 24 23 23 22 22 22 22 22 22 22 22 20 18 18 18 19 20 21 22 23 23 24 23 23 23 23 22
14 13 16 16 18 21 22 21 21 22 23 23 21 21 20 18 18 20 10 11 15 20 22 23 23 22 21 20 19 19 20 20 20 20 20 20 20 19 20 20 22 23 24 24 23 23 23 23 23
15 15 16 15 18 19 19 19 20 21 20 18 20 13 6 12 12 13 10 10 18 18 20 19 21 21 20 20 20 19 18 18 19 19 19 20 19 20 20 20 22 23 24 25 24 23 24 24 23
15 17 16 17 19 17 19 19 19 20 20 17 18 20 20 9 15 4 9 11 18 19 15 18 17 18 18 17 17 17 17 17 17 18 18 18 19 19 19 19 21 22 24 25 25 24 24 24 24
16 15 15 17 18 17 18 17 17 18 19 18 15 17 17 9 13 13 15 12 18 18 17 16 16 17 16 15 15 15 15 15 16 16 16 17 18 18 19 19 20 21 23 24 25 25 25 24 24
7 14 15 15 16 16 15 15 16 16 17 18 17 16 16 12 12 12 13 13 15 15 14 16 16 16 16 15 15 15 14 13 14 14 15 15 16 17 18 19 19 20 22 23 24 25 25 24 24
14 15 6 17 14 14 13 13 14 14 14 15 14 14 15 14 15 14 14 14 14 13 13 13 14 13 13 13 14 13 13 13 13 13 13 14 14 15 16 17 18 19 20 22 23 24 24 24 24
16 15 18 14 11 11 12 11 12 13 13 14 16 14 14 12 12 13 13 14 16 15 15 15 14 13 8 12 12 10 8 9 10 10 11 12 12 13 14 15 16 17 18 20 21 23 24 24 23
15 16 15 14 13 11 10 9 10 12 12 13 16 15 13 12 11 11 12 13 14 15 16 16 16 16 11 8 9 7 7 7 8 8 9 10 10 10 12 14 15 17 18 19 21 23 23 23 23
15 17 21 18 16 13 9 7 8 10 9 11 13 13 13 12 11 11 13 14 16 17 16 17 17 17 17 10 7 7 7 7 7 7 7 7 8 9 11 12 14 15 17 19 20 22 22 22 22
16 17 19 18 17 19 10 9 11 11 9 15 6 10 11 12 12 12 14 15 16 17 18 19 19 18 16 16 9 8 8 8 10 12 14 10 12 12 12 12 13 14 16 17 19 21 22 22 23
18 16 19 17 15 13 11 13 13 10 13 13 11 10 10 11 12 14 15 16 17 18 19 19 20 19 17 16 11 12 14 15 15 15 16 15 13 13 13 13 13 17 16 17 18 20 21 22 21
16 17 17 15 14 12 14 12 13 18 10 11 12 10 10 10 11 14 15 16 18 19 20 21 21 20 17 12 12 12 13 13 14 15 17 16 15 16 15 16 18 19 18 19 18 20 20 21 22
20 20 16 13 12 12 14 17 15 16 7 11 10 10 11 11 11 12 15 16 18 18 20 20 19 19 13 12 11 10 11 12 13 15 16 17 16 16 17 18 19 20 19 18 19 21 21 21 22
20 21 16 11 10 16 15 20 9 10 9 10 10 10 10 10 12 13 14 15 16 17 17 18 17 16 13 12 11 11 11 11 12 14 16 16 16 15 16 18 19 20 20 19 20 22 22 23 24
20 18 22 20 6 15 15 20 26 6 7 11 10 10 10 11 12 13 14 15 15 15 16 16 15 14 12 11 11 11 11 12 14 15 16 17 17 18 18 19 20 20 20 20 21 22 23 24 25
17 25 19 18 10 16 12 21 16 13 11 11 9 8 9 11 13 15 15 15 15 14 14 13 13 12 11 11 12 12 13 14 15 15 16 17 17 18 18 19 19 20 21 21 22 23 24 26 26
22 21 21 25 17 16 18 18 20 14 11 11 10 10 10 12 14 15 16 16 14 13 12 11 11 10 10 10 11 12 13 14 15 16 17 18 18 18 19 20 20 21 22 23 22 23 24 26 27
26 30 30 24 19 22 22 22 21 14 14 13 12 12 12 13 15 15 15 15 13 12 11 9 8 8 8 8 9 10 11 13 15 16 17 18 18 18 19 20 21 22 23 24 24 23 25 29 29
21 26 29 31 22 26 31 35 31 24 15 15 13 14 13 13 15 15 14 13 12 11 9 8 6 6 7 8 9 10 10 13 14 16 17 18 19 19 20 20 21 22 23 25 26 25 25 28 31
24 26 29 30 26 27 35 44 33 27 20 17 17 17 14 13 14 14 13 12 9 8 7 6 5 7 7 7 7 9 10 12 13 15 16 18 19 19 20 21 21 22 23 25 27 27 28 28 29
28 25 25 29 32 34 21 46 34 35 24 17 18 19 14 12 11 12 12 10 9 8 6 4 5 5 6 5 5 6 8 9 11 13 14 16 18 19 20 21 21 23 24 25 26 27 29 28 30
27 26 26 27 31 37 33 41 39 25 23 22 18 17 15 12 11 11 10 9 8 6 5 5 5 5 4 4 4 6 7 8 10 12 14 15 17 18 19 20 21 24 25 26 27 28 29 29 29
17 23 26 28 31 41 29 28 40 27 25 23 16 15 13 11 11 9 8 7 6 5 5 5 5 6 5 4 5 4 5 6 8 10 12 14 16 17 18 19 22 23 25 26 26 27 29 29 30
21 23 32 34 32 40 29 27 29 25 24 23 14 12 11 10 9 9 8 7 5 5 4 4 4 3 3 3 3 3 4 6 8 9 10 11 14 16 18 20 22 23 24 25 26 28 29 30 30
22 22 26 35 35 38 29 34 33 26 22 21 12 10 10 10 9 9 8 7 6 6 5 4 2 2 2 3 3 4 5 7 9 9 10 12 13 15 17 19 21 23 24 25 26 28 29 29 30
22 24 23 33 34 41 36 37 37 26 23 21 14 10 10 10 9 9 9 8 7 7 6 5 4 3 3 3 4 5 5 7 8 9 10 12 13 15 17 19 20 22 24 25 26 27 30 30 31
20 17 25 26 36 43 38 36 31 23 18 16 14 11 10 10 10 10 10 9 8 8 7 6 5 5 5 5 6 6 6 7 7 9 11 12 14 15 17 18 20 22 23 25 26 28 30 31 32
25 27 25 26 30 40 49 41 26 20 17 14 13 12 10 10 11 10 10 10 10 9 8 8 8 7 7 7 7 7 7 7 9 10 11 12 14 15 17 18 19 21 23 25 27 29 31 32 34
27 28 26 33 36 35 40 44 27 27 17 13 13 13 12 12 12 11 11 11 11 11 11 11 10 10 9 8 8 8 8 9 10 11 12 13 14 15 16 17 19 22 24 26 28 30 31 34 35
Wind_Direction
202 172 167 129 102 88 74 95 94 95 75 72 101 27 22 356 318 38 75 348 170 97 109 115 108 102 96 94 94 89 86 81 76 53 28 23 22 27 28 28 28 23 12 9 8 6 5 2 359
190 178 130 121 97 72 64 86 60 63 85 99 106 98 34 21 27 51 350 312 181 87 104 116 120 112 98 89 85 81 79 79 78 73 57 48 41 33 25 32 25 17 14 7 5 3 2 1 1
174 161 115 107 83 27 81 79 69 76 97 113 100 157 131 169 324 8 337 282 78 74 96 95 107 107 106 106 99 88 82 74 71 66 61 53 44 43 38 34 28 20 17 14 13 10 8 6 3
179 118 125 86 55 47 71 68 74 74 70 122 127 66 108 251 169 138 296 218 55 79 62 92 98 101 98 92 92 95 90 87 80 67 61 50 45 39 42 38 29 25 18 14 15 13 11 9 7
140 128 77 62 52 79 42 60 89 74 70 71 162 44 60 235 355 355 9 336 53 66 73 90 102 106 100 91 93 94 94 86 77 72 60 52 48 43 30 32 29 21 19 16 14 12 12 11 11
84 76 55 65 66 71 66 73 80 69 62 88 93 42 50 344 350 337 352 340 13 27 27 76 108 109 114 118 121 125 103 90 75 68 58 56 47 46 41 36 34 29 24 18 14 11 9 7 6
358 10 121 337 56 73 64 66 87 68 72 21 171 28 52 31 55 28 12 5 346 333 345 3 86 112 114 115 131 122 118 102 98 91 80 72 59 51 42 35 32 29 27 22 17 15 14 11 7
330 353 340 2 45 65 50 67 0 7 18 36 310 43 75 27 38 36 22 21 23 15 5 348 344 0 52 132 139 108 66 57 87 75 65 62 57 46 42 36 36 31 26 21 15 12 10 9 7
347 342 355 355 4 29 49 56 2 357 18 358 344 346 9 16 38 35 26 17 10 358 352 345 330 320 22 82 23 91 87 53 60 56 51 45 48 47 43 34 31 28 22 18 15 11 11 9 5
342 333 323 333 342 1 36 67 30 358 16 3 358 7 12 8 15 11 348 345 336 336 343 337 328 326 322 18 66 83 93 108 115 111 82 75 69 69 53 42 33 27 19 15 9 5 3 4 6
338 330 335 333 334 327 17 7 342 348 3 334 33 20 13 2 353 355 347 336 329 333 332 328 324 325 330 318 20 39 48 43 26 10 1 35 35 44 40 38 32 24 19 15 9 5 3 2 359
327 336 329 336 341 344 357 343 336 339 332 340 356 10 9 356 347 339 330 325 325 327 331 332 324 318 321 318 344 343 333 323 336 341 344 2 21 27 20 24 27 13 13 11 9 7 5 1 0
329 333 334 339 345 343 335 332 327 312 337 338 338 346 348 350 353 343 337 335 329 323 325 323 321 314 323 343 343 341 342 346 343 341 340 344 354 358 4 3 0 360 1 1 4 4 2 360 354
320 323 330 340 340 339 327 320 321 320 329 327 330 330 331 334 340 344 336 334 329 332 327 325 324 323 344 348 358 358 359 4 1 357 355 355 0 2 1 0 360 357 359 3 2 357 357 356 355
317 318 326 325 330 327 327 312 307 319 323 317 314 318 322 324 329 331 334 336 339 341 339 333 332 338 350 353 1 5 11 9 4 358 356 360 2 6 5 1 356 356 357 358 358 356 354 352 350
318 322 313 323 320 326 322 312 309 324 318 307 306 309 309 316 324 328 332 336 340 344 343 346 349 352 359 5 11 13 13 6 3 5 7 8 8 6 4 2 0 0 360 358 357 355 353 351 347
317 306 312 318 323 323 318 314 324 317 316 309 303 303 305 311 317 320 324 328 333 341 347 354 356 0 10 17 23 25 22 19 19 18 17 16 20 19 16 11 7 4 3 1 0 356 353 351 350
309 309 310 301 310 311 310 306 309 309 307 302 296 292 294 301 306 314 318 322 330 335 344 353 5 14 24 29 27 27 18 12 11 12 16 10 11 14 14 12 9 7 2 0 360 360 358 353 349
300 301 297 305 313 306 304 303 302 293 290 290 285 279 285 293 301 307 312 317 323 328 335 344 9 22 22 18 18 15 12 16 14 14 12 11 13 17 17 17 16 12 9 5 4 5 0 355 352
296 297 296 297 305 302 300 295 295 296 272 267 265 271 273 285 293 297 304 309 312 316 327 338 355 3 345 347 0 3 17 20 20 16 15 14 15 16 16 16 16 13 13 10 6 1 356 355 353
293 292 295 296 304 303 300 290 295 294 272 268 270 279 266 267 277 287 295 300 307 312 313 322 331 331 339 353 16 24 27 23 19 17 19 17 18 19 18 17 16 16 13 6 2 359 355 349 350
290 296 293 296 297 297 308 289 295 296 295 269 272 274 274 269 272 279 283 288 294 302 312 319 325 332 339 3 15 13 9 10 16 27 26 21 17 16 15 14 14 11 5 1 358 356 354 350 345
290 299 298 296 295 296 294 295 296 300 292 286 271 267 267 264 267 272 272 275 285 287 289 301 315 327 342 351 3 8 11 19 27 26 21 18 18 14 13 11 9 4 1 360 357 355 352 350 346
294 297 299 299 297 289 293 290 296 299 295 292 277 267 261 256 264 268 270 272 274 275 279 286 295 310 335 7 16 16 28 21 15 11 12 10 8 8 10 8 3 0 358 355 354 352 350 347 345
284 290 292 293 290 290 305 291 283 312 310 303 282 268 262 249 253 253 251 246 239 238 247 263 278 302 340 359 16 19 2 355 355 356 359 1 359 359 358 358 357 355 355 354 351 349 347 345 342
272 277 283 290 291 296 302 293 298 308 301 306 295 277 262 246 246 243 236 227 223 227 231 240 235 272 313 338 348 346 347 346 346 350 354 354 354 352 353 353 353 352 352 350 349 347 345 344 340
282 273 280 291 297 294 295 295 295 300 303 296 286 273 253 242 236 228 224 226 227 228 232 226 237 270 292 308 323 334 340 343 343 346 348 348 347 345 347 348 349 348 349 348 346 344 341 340 338
279 287 284 284 292 291 296 297 293 300 290 287 274 259 247 241 233 230 229 230 234 239 241 251 259 265 282 292 303 316 327 332 336 338 336 336 337 339 341 343 345 345 346 346 343 341 340 338 336
274 278 286 288 285 291 292 296 306 288 286 272 265 256 242 232 230 231 235 236 240 248 248 256 263 266 273 281 291 302 313 318 323 324 327 328 331 334 336 339 341 342 343 342 340 339 338 337 336
276 276 273 282 287 285 287 254 303 307 297 278 268 258 250 241 239 233 231 232 236 246 253 257 261 263 267 274 282 289 300 307 312 315 320 323 324 329 332 335 338 338 338 337 337 337 337 334 333